sat.trackr.live / text

‹ back to catalog

2025-313AJ

NORAD 67280 · 2025-313AJ

PAYLOAD ACTIVE UNKNOWN

§ Identity

Operator
Country
TBD
Launch date
2025-12-28
Launch site
VOSTO
Launch vehicle
Mass (kg)
RCS (m²)

External: N2YO · Heavens-Above · Gunter

§ Orbital elements

Epoch: 2026-05-25T03:20:28.315104Z

Period
94.60 min
Inclination
97.4002°
Eccentricity
0.0014868
Mean motion
15.22178376 rev/d
Perigee alt
489.0 km
Apogee alt
509.5 km
Semi-major
6,877.4 km
B*
2.1194e-4
RAAN
220.2468°
Arg perigee
84.2483°
Mean anomaly
276.0448°
Rev number
2,244

§ Raw data

2025-313AJ1 67280U 25313AJ  26145.13921661  .00004808  00000+0  21194-3 0  99932 67280  97.4002 220.2468 0014868  84.2483 276.0448 15.22178376 22442

JSON: /api/v1/satellites/67280 · /tle

For live sub-satellite position, see the globe view (requires WebGL).

§ Visibility from observer

Set your observer location to see the next 7 days of passes ≥ 10°. The values pass through the URL so the page stays shareable.

No JS? Fill the form by hand. The geolocation button needs JavaScript.